Theta_e
339 340 341 340 341 341 342 343 343 344 344 345 346 346 347 345 345 346 345 345 342 341 341 340 340 339 340 339 339 342 344 345 346 348 347 346 346 345 342 344 344 345 341 336 339 340 340 342 340 338 339 338 338 339 338 339 339 338 342 341 339 337 337 337 337 338 334 332 335 336 337 338 339 338 337 339 338 338 342 336 337 337 337 336 337
338 338 339 340 340 341 342 341 342 342 342 344 344 345 343 344 343 343 344 343 342 343 343 342 342 340 340 339 341 344 342 341 342 345 347 347 346 344 344 342 342 344 342 339 341 340 339 340 342 340 339 340 341 341 340 341 337 335 340 337 336 340 335 336 336 336 331 328 329 328 333 337 337 335 335 336 338 337 339 336 336 336 336 337 338
331 332 333 333 335 337 338 340 341 342 341 341 342 342 342 342 343 343 342 341 341 342 342 341 342 343 342 343 341 342 342 338 339 339 341 341 340 340 342 342 342 343 339 342 341 340 340 341 341 340 339 338 339 337 338 338 335 337 335 335 334 336 335 337 337 336 329 330 331 330 327 325 328 331 334 335 335 338 338 337 338 337 337 336 336
324 326 327 327 328 329 330 333 335 336 335 336 337 338 339 339 340 340 339 341 341 343 341 343 344 344 344 344 346 346 341 342 341 341 342 341 339 340 340 341 342 343 343 342 342 340 340 339 342 339 339 337 339 335 335 337 336 336 333 333 338 331 330 333 338 337 332 331 325 325 326 324 320 323 327 331 336 336 336 336 336 335 338 337 337
322 323 324 325 325 326 327 328 331 332 333 334 335 335 337 338 338 339 340 340 341 340 341 343 343 343 343 343 345 343 343 343 342 341 342 342 340 341 341 341 341 343 344 342 339 341 340 341 341 342 339 341 337 337 335 336 336 337 335 334 333 334 331 333 336 337 335 340 332 326 322 319 319 325 328 330 335 333 334 335 335 337 336 335 335
319 320 321 323 324 325 326 326 327 328 329 332 335 336 336 336 337 338 339 340 340 341 342 342 341 340 339 339 339 339 338 338 337 337 336 339 338 343 341 340 343 344 343 342 340 340 341 340 341 339 337 337 339 340 338 338 335 337 336 334 333 337 334 332 333 338 340 341 340 337 335 324 322 329 325 320 330 333 334 334 337 338 337 337 336
318 320 321 321 323 324 324 324 326 326 328 331 332 333 334 336 337 338 338 339 339 341 342 341 340 340 340 339 338 337 336 339 340 340 340 340 342 342 342 343 343 342 342 342 342 341 341 339 339 340 338 337 336 338 337 336 336 335 337 338 335 334 336 332 332 335 337 339 339 338 337 335 334 327 323 326 322 327 331 333 332 335 336 334 334
316 317 319 321 322 323 322 323 324 325 327 329 330 331 331 332 335 336 337 338 340 341 340 341 340 339 339 338 338 338 338 338 339 340 342 342 342 342 343 344 344 342 342 341 341 341 342 341 340 340 338 338 334 334 336 337 338 337 336 337 339 338 340 335 334 335 331 330 337 336 336 336 335 333 332 324 323 319 322 329 334 335 334 335 337
318 318 318 319 320 321 322 322 324 325 326 326 327 328 330 331 332 332 332 335 338 339 340 339 339 339 338 338 337 338 339 339 340 340 339 340 339 340 341 342 343 343 341 340 340 339 339 340 337 335 336 337 333 334 336 338 337 337 336 337 338 339 339 339 336 334 332 331 333 332 332 331 333 333 332 332 326 323 324 326 327 331 334 334 334
317 318 319 319 320 320 322 323 323 324 325 326 326 327 328 329 329 330 331 333 335 337 337 339 339 339 337 337 338 337 338 338 339 338 337 339 339 339 339 340 341 341 343 344 341 340 339 338 338 338 338 336 334 335 335 336 336 337 337 335 337 335 339 339 337 335 334 335 334 333 329 329 333 330 330 329 331 327 323 323 327 326 324 329 335
316 316 318 318 319 320 321 321 322 323 323 324 324 325 326 326 327 328 329 330 332 334 336 337 337 337 337 336 335 335 336 337 336 336 337 338 338 338 338 338 339 340 342 343 340 339 339 338 339 339 336 334 333 333 336 338 337 338 337 337 333 334 336 337 336 335 337 336 337 334 331 330 329 326 328 329 329 327 327 326 325 326 326 325 332
315 315 315 316 317 318 319 319 320 321 322 322 322 323 324 324 325 325 326 328 329 330 332 334 335 335 336 336 335 335 335 333 332 333 334 335 337 335 338 337 338 340 341 341 340 339 338 337 338 339 336 335 333 332 335 339 340 338 336 334 335 335 335 335 334 334 339 336 337 335 335 336 333 330 329 330 329 329 326 324 324 327 328 328 331
313 314 314 315 314 315 316 317 318 319 319 320 321 322 322 322 323 323 323 325 326 328 329 330 331 333 334 335 335 335 334 334 334 334 335 334 335 334 335 334 336 338 339 339 339 339 338 337 337 336 336 336 336 337 338 339 339 335 335 335 334 333 333 335 333 337 338 336 336 337 337 335 333 334 334 333 332 331 329 324 323 327 325 325 329
312 313 313 314 313 314 315 316 316 317 318 319 319 320 321 321 321 321 322 324 325 326 328 328 330 331 333 334 334 334 335 335 335 334 335 337 337 336 335 336 335 337 338 338 339 340 339 339 337 337 338 338 337 337 337 337 337 336 335 335 335 334 335 333 334 337 337 336 336 336 336 335 337 336 333 333 330 330 328 325 325 325 326 324 328
311 311 312 312 313 314 314 315 315 316 316 317 318 318 319 320 320 321 321 322 323 323 325 325 327 328 330 331 332 333 333 333 334 335 334 335 335 337 337 335 334 335 336 339 339 339 340 340 339 338 337 337 338 338 337 336 336 335 337 335 338 335 334 336 336 335 334 335 337 337 337 336 334 335 333 333 332 331 329 328 326 322 323 325 323
311 311 311 312 313 313 314 314 314 315 315 317 317 318 318 319 320 320 321 322 322 322 323 324 325 326 327 327 327 328 329 331 332 334 335 337 337 335 338 338 336 336 335 334 337 338 338 338 339 338 337 337 338 336 334 333 336 338 338 337 333 333 332 334 336 335 335 335 334 334 336 335 337 334 335 336 334 332 331 331 329 325 323 319 322
309 309 310 311 312 312 312 313 313 314 314 315 316 318 318 318 318 319 320 321 321 322 322 323 324 324 325 324 324 325 326 327 329 333 335 336 336 338 338 339 338 334 334 333 337 335 336 338 338 338 337 337 338 338 338 338 337 337 337 336 333 334 337 336 335 335 335 333 332 332 334 335 337 335 334 332 333 335 333 333 331 327 327 323 319
308 308 309 309 310 310 311 312 312 312 313 314 315 317 318 318 318 318 319 319 322 320 322 322 322 322 322 322 323 324 324 326 328 330 332 334 335 336 336 337 338 337 333 333 333 333 335 338 337 337 338 337 337 337 338 337 338 337 337 336 335 338 335 335 335 334 333 333 330 331 336 335 336 333 333 336 336 336 334 332 333 331 330 326 323
307 307 307 308 309 310 310 311 312 313 314 314 315 317 318 318 318 318 318 319 319 321 322 321 322 321 322 322 323 323 323 324 325 326 327 329 332 333 333 332 335 333 333 334 334 333 336 338 338 338 337 337 337 336 337 335 334 332 333 333 335 336 334 334 335 334 333 330 329 333 335 337 336 333 335 337 336 334 336 337 333 332 332 331 328
305 306 307 308 309 310 310 311 312 312 313 315 316 316 317 317 317 318 319 319 319 319 320 320 321 320 321 322 322 322 323 323 324 324 324 325 328 330 331 333 332 334 333 333 331 335 336 334 337 337 336 336 335 336 336 333 333 332 331 331 336 333 332 333 333 334 334 333 332 332 331 330 335 334 332 332 335 336 338 336 334 334 332 332 330
304 305 307 308 309 309 310 312 312 314 315 315 315 315 316 316 317 319 318 317 318 318 319 320 320 319 320 321 321 321 321 322 322 323 323 324 324 325 327 328 332 333 333 335 333 334 335 335 335 335 336 335 336 335 336 336 332 332 333 331 334 335 334 333 335 334 333 333 332 330 329 333 336 332 334 333 332 335 336 336 336 334 332 332 329
305 307 308 308 309 309 311 312 314 313 313 315 315 315 315 315 315 315 315 316 316 315 319 318 319 318 319 321 320 321 320 320 320 321 321 321 322 323 325 327 329 331 334 334 335 334 335 335 334 333 333 335 334 335 335 334 334 333 331 333 333 335 331 332 334 334 332 333 333 330 329 331 333 334 333 334 333 335 334 332 331 332 330 331 333
305 306 307 308 309 310 311 311 311 311 312 313 313 313 314 314 315 315 315 315 316 316 318 317 318 318 319 319 319 320 319 319 319 319 320 320 321 322 324 325 326 328 331 334 333 334 335 333 331 333 331 331 334 334 335 335 332 332 333 332 334 332 333 330 331 331 331 332 332 332 332 330 331 330 331 332 333 335 334 330 330 332 331 331 329
306 306 307 307 309 310 309 308 309 310 311 311 311 312 312 313 313 313 314 314 315 315 316 317 316 317 318 318 318 318 319 318 318 318 319 319 320 321 323 323 324 326 327 331 334 332 332 332 330 330 332 332 329 334 336 336 334 331 330 331 332 332 330 329 332 331 331 331 332 332 332 332 329 328 330 335 335 336 334 332 331 333 332 330 330
305 305 305 307 307 308 308 308 308 308 309 310 310 310 311 312 312 312 312 313 314 315 315 315 315 316 316 316 317 317 317 318 317 317 318 319 319 320 321 320 322 323 325 328 330 332 332 330 333 332 332 334 332 331 331 332 335 334 332 334 331 331 330 330 333 332 332 331 331 332 333 333 331 330 330 331 334 334 332 330 330 330 331 331 332
304 305 306 305 306 308 309 309 307 308 308 309 309 309 310 311 311 312 312 312 313 314 314 315 315 315 315 315 315 315 316 317 316 316 317 318 318 318 318 319 320 320 322 325 327 330 331 331 331 330 332 332 332 331 331 330 330 331 330 331 334 334 332 332 329 330 330 333 334 332 332 331 330 330 329 332 331 334 332 331 329 329 328 330 332
305 305 306 306 306 306 307 309 311 311 312 310 309 309 309 310 310 311 312 312 313 313 314 314 314 314 313 314 314 314 315 316 316 316 316 316 316 317 317 316 317 318 319 320 322 325 328 331 331 330 328 329 331 331 331 332 331 330 330 334 334 335 332 329 331 329 332 332 335 334 333 333 332 333 331 330 332 334 332 332 332 332 329 329 331
305 305 304 304 305 306 306 307 307 307 308 308 312 309 310 310 309 310 311 312 313 313 313 313 312 313 313 313 313 314 314 315 315 315 315 315 315 315 315 316 315 315 316 317 317 319 321 326 330 331 331 329 329 330 331 331 332 331 330 332 332 334 333 333 333 333 333 333 334 334 334 334 334 335 335 335 332 330 332 332 332 333 332 329 329
303 303 304 304 304 305 305 306 306 307 308 308 308 308 309 310 309 310 311 311 312 312 312 311 312 312 312 312 313 313 314 314 313 313 313 313 313 314 314 314 313 313 314 314 315 316 316 317 320 329 329 328 327 328 330 330 331 331 331 329 330 329 330 330 328 330 329 332 333 332 332 333 334 334 324 326 326 324 333 331 334 332 331 328 329
302 303 303 304 304 305 305 305 306 306 306 306 307 307 307 308 309 309 310 311 311 311 311 311 310 311 311 311 311 312 312 312 312 312 312 312 312 312 312 312 311 312 312 313 313 313 312 313 314 317 324 329 328 330 326 315 314 326 329 330 332 331 331 333 334 333 333 333 332 332 333 328 323 321 315 310 308 310 315 325 333 332 330 328 326
302 303 303 304 304 304 304 304 304 305 305 305 306 307 308 308 308 308 309 310 310 310 310 310 309 310 310 310 310 310 310 310 311 311 311 311 311 311 310 310 310 310 310 310 311 310 310 310 311 312 314 319 327 328 314 307 305 305 321 329 328 329 329 329 329 326 332 330 331 331 332 329 324 322 319 306 306 303 304 307 309 319 325 332 330
302 302 303 303 303 303 303 303 304 305 305 305 305 306 306 306 307 308 309 310 310 309 309 309 309 309 309 309 309 309 309 309 309 309 309 310 310 309 309 308 308 308 308 309 308 308 308 308 308 308 311 314 319 311 300 300 302 303 305 322 329 329 326 329 330 328 329 332 332 331 330 330 328 329 330 322 313 304 301 300 301 302 303 302 303
301 301 301 302 302 303 304 304 304 304 304 305 305 306 306 306 307 308 309 308 308 308 308 308 308 308 308 308 308 308 307 308 308 308 308 309 308 308 307 307 307 308 307 306 306 306 305 305 305 304 306 308 314 299 295 294 294 295 298 307 327 330 328 330 328 327 329 329 329 329 328 328 328 324 329 331 327 317 303 299 298 298 296 298 301
301 301 301 301 302 302 303 303 304 304 304 305 306 305 306 307 307 307 307 308 307 307 307 306 307 307 307 308 307 307 307 307 308 308 308 307 307 306 307 307 307 307 305 305 305 304 304 304 303 303 302 304 308 300 294 294 293 293 294 298 319 326 329 328 329 328 328 328 328 328 327 327 328 328 331 330 331 328 323 320 321 326 325 307 298
300 300 300 301 301 302 303 303 303 304 305 305 305 306 307 307 307 306 307 307 307 307 306 306 305 306 306 306 306 306 306 306 307 307 307 306 306 306 306 306 305 305 304 303 303 302 302 302 302 302 301 301 303 297 294 292 292 292 293 295 315 323 328 326 327 328 327 329 327 328 328 328 328 329 330 330 331 330 329 330 330 330 330 327 327
300 300 300 301 301 302 302 303 304 304 304 304 305 306 306 306 307 306 306 306 306 306 305 306 305 305 305 305 305 305 305 305 306 306 305 305 305 305 305 305 305 305 305 304 303 302 301 301 301 301 300 299 301 296 294 292 291 292 292 304 313 322 325 327 326 328 328 327 327 327 325 327 324 328 316 309 317 331 330 329 328 327 321 316 309
301 301 301 303 303 303 303 304 304 304 304 304 305 306 306 306 305 305 305 305 305 305 305 305 305 305 306 306 306 305 305 305 305 305 304 304 304 304 304 305 304 304 303 303 302 302 301 300 299 299 299 298 299 297 293 292 291 291 295 307 313 320 325 327 328 328 329 327 320 325 323 325 328 329 311 303 305 310 328 325 324 322 322 318 314
301 302 302 303 303 303 304 303 304 304 305 305 305 305 305 305 304 305 304 304 304 304 304 304 305 305 305 306 306 305 304 304 304 304 304 304 304 304 304 304 303 303 302 303 303 302 302 301 299 299 298 297 297 297 293 291 291 291 293 303 312 318 323 324 323 323 320 312 308 303 317 324 324 323 300 304 304 316 325 324 323 321 318 314 312
301 302 301 301 302 302 303 303 303 303 304 305 305 305 304 303 303 304 304 303 303 304 304 304 304 305 305 305 305 305 304 304 304 304 305 304 304 303 304 304 303 303 303 303 302 302 302 301 300 299 299 297 296 296 294 291 291 292 295 306 312 319 321 320 318 317 316 313 309 303 298 305 317 303 296 298 296 310 323 325 323 321 317 313 313
301 302 302 302 302 302 302 303 302 303 305 305 304 304 303 303 303 303 303 303 303 304 304 305 305 305 305 305 305 304 304 304 304 304 305 304 305 304 303 303 303 302 302 302 302 302 301 301 300 299 298 297 296 295 295 291 291 292 292 302 314 314 312 311 311 312 310 306 304 303 300 292 292 292 292 292 294 294 320 324 323 320 316 311 312
300 300 300 301 302 302 301 301 302 303 303 304 303 303 302 302 303 302 302 303 304 305 304 304 305 305 305 304 304 304 304 305 305 304 305 305 304 303 303 302 302 302 302 301 301 301 301 301 301 299 298 298 297 295 295 291 291 291 291 295 307 308 308 306 304 301 301 300 299 299 299 293 291 292 293 293 295 296 305 323 321 320 317 312 309
301 300 301 302 301 302 302 302 302 303 303 303 302 301 301 301 301 301 302 304 304 304 304 304 304 304 304 304 304 304 305 305 305 305 304 303 304 304 303 302 302 301 301 300 300 300 300 299 300 300 299 299 299 298 295 293 291 291 291 291 296 299 300 302 299 297 297 296 296 296 295 292 291 292 293 294 295 296 298 304 302 296 296 300 312
300 301 301 301 301 301 301 302 302 303 303 303 302 301 301 301 300 301 302 303 304 304 303 304 303 303 303 303 303 304 304 304 304 304 303 303 303 303 302 302 302 301 301 300 299 299 299 298 298 299 299 299 299 298 295 295 293 291 291 291 290 292 292 299 298 296 295 296 297 297 295 292 291 291 292 293 294 295 298 298 295 295 296 297 302
301 301 301 301 301 301 301 302 302 303 303 303 302 300 300 300 300 302 303 303 303 304 303 303 303 303 303 303 303 303 304 304 303 303 303 303 302 302 302 301 301 300 300 299 298 299 298 296 295 296 297 297 298 298 297 294 295 292 292 291 291 291 291 294 295 294 294 294 295 296 294 291 291 292 291 291 292 293 295 292 293 295 298 300 308
300 300 301 301 301 301 301 301 302 303 303 302 302 301 300 300 301 302 302 302 302 302 302 302 302 302 303 303 303 303 303 303 303 303 302 301 301 301 300 301 300 299 299 298 298 298 297 296 295 294 295 295 296 297 298 296 294 294 293 292 291 291 291 292 294 294 293 293 291 291 291 291 292 293 293 294 293 292 291 292 293 295 302 311 310
301 301 301 300 301 301 300 300 301 302 302 302 302 302 300 301 302 302 302 302 302 301 301 301 302 302 302 302 302 302 303 304 304 303 302 301 301 300 299 299 299 299 298 298 297 297 296 296 295 295 294 295 295 296 296 296 296 296 295 293 292 292 293 293 294 294 292 292 291 292 291 292 292 293 297 297 296 295 292 293 293 297 301 302 305
299 300 300 300 300 299 300 300 300 302 302 302 303 302 302 302 302 302 302 302 301 301 301 301 301 301 302 301 301 301 301 302 303 303 303 302 300 300 300 298 298 298 298 297 297 297 296 296 295 295 295 295 294 294 294 295 295 296 295 295 295 295 294 293 295 296 295 296 294 294 293 292 293 292 292 292 294 294 296 297 298 299 299 300 300
299 299 299 300 300 299 299 300 300 301 301 302 302 302 303 303 303 302 303 302 301 300 300 301 301 301 300 300 301 294 298 301 301 302 301 301 301 301 300 299 298 298 298 297 297 297 297 296 295 295 295 295 295 294 293 292 293 294 295 295 295 294 294 294 293 294 295 296 295 293 294 295 295 295 295 295 295 294 294 295 297 298 298 297 296
297 298 299 300 300 299 300 299 300 300 301 301 302 302 303 304 303 303 303 302 300 299 301 301 301 300 299 300 300 300 300 300 300 302 302 301 300 301 300 300 301 300 299 299 299 298 298 298 298 295 295 294 294 293 291 288 289 289 289 293 293 293 294 294 292 290 294 294 293 293 292 292 292 290 290 292 293 293 292 293 294 295 295 296 296
299 299 299 300 300 300 300 300 300 300 300 300 302 303 303 303 303 302 302 301 301 300 300 300 300 299 299 300 300 299 300 299 300 300 302 299 291 289 295 301 300 291 286 287 290 296 296 299 299 297 295 293 291 291 288 288 288 288 289 288 288 289 289 291 290 290 292 290 290 289 290 289 290 290 289 289 290 291 291 290 291 290 292 293 294
299 299 299 299 299 300 300 299 300 300 300 300 301 303 303 303 303 302 302 301 301 300 299 299 299 299 297 299 300 300 300 299 300 299 299 298 301 297 288 288 289 290 289 288 288 288 288 288 295 299 293 288 289 288 288 288 288 288 288 288 288 288 289 289 289 291 290 288 287 287 287 288 288 289 288 289 290 290 290 290 290 291 292 291 291
Wind_Speed
10 10 10 10 9 7 5 4 4 3 2 2 1 0 1 2 1 2 2 5 1 2 4 5 6 6 6 6 7 6 6 6 5 4 4 4 4 4 3 5 6 3 4 1 5 7 7 6 6 6 6 5 5 7 9 6 3 8 7 5 9 7 9 8 8 7 7 6 6 6 6 5 5 5 2 2 6 5 4 5 6 4 5 6 5
12 11 11 10 9 8 6 4 3 3 4 5 4 4 3 2 3 3 2 3 2 3 3 4 5 5 5 5 5 5 7 6 6 5 4 4 4 4 7 6 3 4 4 7 7 9 8 6 5 8 7 6 6 5 6 2 4 10 6 7 9 8 8 9 7 8 8 8 8 7 6 4 2 4 8 8 5 4 6 7 5 5 5 5 5
12 12 12 12 13 13 10 8 8 9 9 9 9 6 6 6 6 6 6 5 4 3 4 4 4 5 5 3 3 3 1 2 5 8 6 4 5 5 4 5 9 5 7 8 8 9 10 8 7 8 6 7 6 6 4 5 5 7 7 7 8 9 9 9 9 9 7 8 6 5 6 5 4 4 6 8 7 7 7 5 5 6 5 5 5
12 11 11 11 12 11 11 10 10 10 10 10 9 8 7 7 7 6 4 3 2 3 4 4 5 5 4 4 5 4 3 4 3 7 6 4 4 6 5 6 8 8 7 8 8 9 10 10 6 7 7 9 6 6 5 7 5 4 7 10 6 7 8 9 9 10 9 7 7 6 5 7 6 8 6 6 8 7 7 6 6 7 5 5 6
10 10 11 11 11 11 12 11 11 11 10 10 9 8 6 8 7 5 3 3 2 2 3 4 4 4 4 4 3 4 4 4 5 4 3 4 5 5 7 8 10 10 9 9 9 9 10 9 7 5 6 6 7 7 7 7 6 5 6 7 11 9 9 9 9 10 10 6 6 6 3 3 6 4 8 6 7 5 9 9 8 7 8 8 6
10 10 10 10 10 10 11 11 12 11 11 10 10 10 9 6 5 5 5 4 3 3 2 3 3 3 3 3 3 3 4 3 3 2 5 3 5 5 8 9 10 9 9 10 10 9 8 8 8 8 8 7 7 7 7 6 8 8 10 12 12 12 9 9 8 7 8 7 5 4 2 2 5 3 7 6 6 8 4 9 9 9 8 7 6
9 9 9 10 10 10 11 11 11 11 10 9 9 9 11 10 9 7 5 5 4 4 5 4 4 4 4 3 4 4 4 2 3 5 5 5 5 6 7 7 8 9 9 9 9 9 8 8 10 8 8 8 8 7 8 8 8 9 7 9 12 11 11 8 10 8 6 7 7 6 5 4 2 5 7 3 5 4 7 10 10 9 8 9 8
8 9 10 11 11 11 11 11 10 10 9 9 9 9 10 11 12 11 9 8 7 5 6 4 5 4 4 4 4 4 4 4 4 5 5 5 7 8 7 6 8 9 9 10 10 9 6 6 7 7 7 6 9 9 11 9 6 6 8 11 10 9 8 8 8 7 8 7 8 9 7 6 6 6 7 7 7 8 9 8 8 8 8 8 5
9 9 10 11 11 11 11 11 11 10 10 10 9 9 9 9 9 9 9 9 9 9 7 6 6 6 5 5 5 4 5 5 4 4 5 6 7 7 7 7 7 8 9 10 10 10 9 9 9 10 9 8 9 10 11 10 9 8 10 8 9 7 7 7 7 7 8 8 7 8 8 8 8 7 8 8 8 9 7 9 8 8 7 7 7
9 10 11 11 11 11 10 10 11 11 10 10 9 9 9 9 9 9 9 7 8 10 8 6 6 5 5 6 7 6 5 5 6 6 6 6 7 8 8 7 7 7 7 8 9 9 10 10 9 10 8 9 9 12 12 11 10 9 7 9 5 7 6 7 8 6 9 8 8 6 6 9 7 7 7 9 7 5 5 8 8 9 9 8 7
8 9 10 10 10 10 10 11 11 11 10 10 10 9 9 9 9 9 9 8 8 8 9 9 7 6 6 6 7 7 8 7 8 7 7 7 8 8 7 7 6 6 6 6 8 9 9 9 9 9 7 7 8 9 10 10 11 10 7 7 8 10 6 6 4 9 9 8 8 9 10 9 7 8 8 8 7 8 5 6 8 10 9 9 8
8 8 9 10 10 10 10 11 11 11 11 11 9 9 8 9 10 10 10 10 9 9 8 8 8 7 6 6 7 7 8 8 8 9 9 9 9 9 8 7 6 6 6 6 6 7 7 7 9 8 8 7 8 10 10 8 7 9 8 7 7 8 8 7 7 11 8 7 8 9 9 6 6 7 8 8 7 7 7 6 7 7 8 7 7
8 8 8 8 9 9 10 10 10 11 10 10 10 9 8 9 10 10 10 11 10 9 9 9 9 9 8 8 8 8 8 8 9 9 9 9 8 9 8 8 7 6 6 6 7 7 7 7 7 8 9 10 8 9 11 10 9 10 11 10 10 9 9 8 11 11 8 8 8 7 6 5 6 6 4 4 8 5 5 7 8 10 8 7 9
8 8 8 9 9 9 9 9 9 9 10 10 10 9 9 9 10 10 10 9 9 10 9 9 9 9 9 9 9 8 10 9 9 10 9 8 8 7 6 7 7 9 6 7 7 6 7 8 8 8 9 9 10 11 13 13 12 11 11 10 10 10 7 10 11 9 8 8 7 7 7 7 5 3 7 8 9 7 7 8 6 7 8 8 6
7 8 8 8 8 9 8 9 9 9 10 10 9 10 10 9 10 10 11 11 10 10 9 10 9 9 10 10 9 9 9 10 10 10 9 9 9 8 6 7 7 7 10 6 7 7 7 7 8 8 8 9 10 10 10 10 11 10 10 10 7 7 10 10 8 8 9 10 8 7 6 6 6 3 8 9 8 9 8 7 6 7 7 8 8
7 8 8 9 9 9 9 9 10 9 10 10 10 9 10 10 10 11 11 11 11 10 9 9 9 8 9 10 11 11 10 9 10 11 10 9 7 8 7 7 7 6 8 10 8 7 7 7 8 9 9 9 10 11 12 10 13 11 8 7 8 7 10 13 11 10 8 8 7 7 7 7 6 8 8 5 8 9 7 5 6 8 8 8 8
8 8 9 10 10 10 9 10 10 10 10 10 10 10 11 10 11 11 11 10 9 10 10 10 10 9 9 10 10 11 11 11 11 13 13 11 9 8 7 7 7 5 6 9 8 8 8 8 8 9 9 10 11 11 11 11 10 11 10 8 9 11 11 11 9 8 6 5 5 9 9 7 7 6 5 9 9 4 7 4 5 7 8 8 8
8 9 9 9 10 10 9 9 10 10 10 9 10 9 9 10 11 11 11 12 12 10 8 10 10 10 10 10 11 10 10 11 11 13 13 12 10 9 8 8 7 6 6 5 8 11 10 8 8 9 9 10 10 10 11 12 10 7 9 9 10 9 10 9 9 8 7 6 6 9 8 9 7 6 7 7 6 6 6 6 4 7 8 8 8
7 8 7 8 7 8 8 8 9 9 8 8 9 9 10 10 10 10 12 12 11 11 13 9 9 8 8 10 11 11 10 9 10 11 12 13 13 12 11 10 8 9 8 8 9 12 9 8 9 9 9 10 10 11 9 7 6 8 9 9 12 10 9 9 8 9 8 8 10 11 9 7 5 8 8 5 9 9 8 5 6 8 7 5 6
7 7 7 7 7 8 8 8 9 9 9 8 9 9 10 10 10 10 9 11 11 10 9 11 10 10 9 9 11 10 10 11 10 11 11 12 13 13 14 10 9 6 7 12 12 11 6 9 11 9 10 10 11 9 7 8 10 9 8 11 11 12 12 12 10 9 10 11 12 10 9 11 11 6 10 14 12 10 8 7 7 5 6 7 5
7 6 6 7 7 8 8 8 7 8 9 8 9 9 10 9 9 10 13 11 10 10 9 8 10 10 13 11 10 11 11 10 12 12 11 11 12 12 12 12 11 10 10 10 11 12 10 9 9 10 10 10 10 11 10 8 8 10 9 12 12 12 12 11 10 12 9 10 11 9 12 13 9 12 11 9 10 11 10 6 5 5 5 5 9
6 6 7 6 7 8 7 7 9 10 9 10 9 10 10 11 10 11 10 10 10 10 10 12 8 10 12 13 13 11 11 11 12 11 11 12 12 12 12 13 12 13 13 12 11 10 9 11 9 10 11 10 11 11 11 12 10 8 12 10 11 8 10 10 10 10 10 9 10 11 12 9 9 8 10 11 11 10 10 11 10 8 8 7 9
7 7 7 7 7 6 8 10 11 9 10 10 10 10 11 11 11 10 11 11 11 11 11 9 12 11 12 12 12 12 12 13 13 11 12 12 12 12 12 11 12 12 13 13 12 11 10 7 8 11 5 10 9 9 10 11 12 13 12 12 10 13 9 8 10 12 14 14 14 13 13 9 7 8 12 11 11 10 10 11 11 8 7 7 11
7 7 7 7 7 8 10 10 10 9 9 10 10 9 10 10 10 10 11 12 11 11 11 10 11 12 13 13 13 12 13 13 13 12 13 13 12 12 12 12 13 12 13 13 14 12 11 9 8 10 9 6 8 10 8 9 10 10 13 13 12 10 10 14 13 13 14 15 14 13 12 10 10 14 14 10 11 9 8 7 8 8 8 11 10
8 8 8 8 9 9 9 10 10 10 9 9 10 10 10 11 11 11 12 12 12 12 12 11 11 13 12 12 13 13 13 14 14 12 14 14 13 13 11 13 13 13 13 13 13 11 8 13 10 10 12 10 8 9 11 12 9 6 10 11 13 13 12 15 12 13 11 13 15 15 12 10 10 10 9 13 12 12 10 8 8 6 7 9 10
9 8 9 11 9 9 9 9 9 9 9 10 10 11 11 11 12 11 11 12 11 11 12 12 12 13 13 14 14 13 14 14 14 14 14 13 13 13 14 12 13 14 14 15 15 12 11 12 13 12 11 11 8 8 8 10 12 11 14 15 13 10 11 9 10 9 13 15 12 13 10 9 10 10 11 12 12 13 11 10 11 11 13 9 6
8 9 9 9 10 10 10 10 8 7 6 6 6 11 11 11 12 11 11 11 11 12 12 12 12 12 13 13 14 14 13 14 14 14 13 13 14 13 14 14 13 14 13 13 14 17 14 11 10 8 9 11 10 10 8 8 7 9 13 13 12 10 6 7 8 14 11 10 12 11 11 12 13 14 13 14 12 10 11 11 10 10 13 8 7
8 10 10 10 9 10 10 10 11 11 12 12 13 13 11 9 11 12 11 10 10 11 11 12 12 12 13 13 13 13 14 13 13 13 14 14 14 13 14 13 14 15 14 15 14 14 15 16 13 7 7 10 11 11 11 11 9 7 9 9 12 8 8 9 6 9 8 10 10 9 8 10 11 9 9 7 5 6 4 6 7 3 4 3 7
10 10 9 9 9 9 9 9 9 9 10 10 9 10 11 12 12 11 11 11 11 12 12 12 12 13 13 13 13 13 13 13 14 14 14 14 14 14 14 14 14 14 12 14 15 15 15 15 16 13 9 9 10 9 8 7 7 9 9 11 11 11 12 13 13 12 12 13 9 8 9 9 10 8 8 6 5 2 3 6 6 3 4 2 1
10 9 9 9 9 9 9 9 10 11 11 10 10 10 11 11 11 12 11 12 12 11 12 12 12 13 13 13 13 13 13 14 14 14 15 15 15 15 14 15 15 15 15 14 15 15 14 14 14 16 14 8 7 9 9 9 7 6 7 10 6 6 9 8 7 10 11 9 9 8 8 12 13 9 11 11 11 9 7 4 7 6 5 5 4
9 9 9 9 9 9 9 10 10 10 10 10 10 9 10 11 11 11 11 11 11 12 11 12 13 13 13 14 13 13 14 14 14 14 15 16 16 15 15 15 15 15 15 15 15 15 15 14 15 14 14 14 10 8 12 12 11 11 8 7 8 8 5 7 7 11 10 8 10 9 5 6 9 9 11 13 10 10 10 3 6 4 5 7 7
9 9 8 8 9 10 10 9 9 10 10 10 10 10 10 10 11 11 11 11 11 11 12 12 13 13 13 14 13 14 14 14 14 15 15 15 15 16 16 15 15 16 15 15 15 15 14 14 13 14 14 12 12 20 21 21 18 15 10 8 8 6 9 8 9 10 10 9 8 7 5 4 5 8 10 11 10 10 11 8 8 8 7 6 5
9 9 8 9 8 9 9 9 9 9 9 10 9 9 10 10 10 10 10 10 11 11 12 12 12 13 13 13 14 14 14 14 14 15 14 14 15 16 16 16 16 16 15 15 15 16 15 14 13 14 14 14 11 16 21 22 21 19 16 10 8 9 8 8 5 6 6 4 4 4 7 7 9 14 13 11 10 8 9 11 10 9 7 7 7
9 8 9 8 8 8 8 8 9 9 8 8 9 9 9 9 10 10 10 10 11 11 11 11 12 12 13 13 14 14 14 14 15 15 15 15 15 15 16 14 15 15 15 15 15 16 15 15 15 14 14 13 12 15 21 23 23 21 17 10 8 12 8 8 7 8 7 7 9 5 7 9 7 13 9 10 11 10 9 8 8 8 6 7 7
9 9 8 8 8 8 8 8 8 8 8 8 8 8 8 9 9 10 10 10 10 11 11 11 11 12 12 13 13 14 14 14 15 15 15 15 16 15 16 14 14 15 15 15 15 15 14 14 15 15 14 13 11 17 19 22 23 21 18 12 8 8 7 6 9 9 10 11 6 6 9 8 10 11 10 9 10 10 9 8 8 9 6 5 3
8 9 8 8 8 8 8 8 7 7 7 7 7 7 8 9 9 10 10 11 11 11 11 12 12 12 12 13 13 13 14 14 14 14 14 15 15 16 17 15 14 14 14 14 14 14 15 15 15 15 14 15 13 17 20 22 23 22 18 8 8 9 9 10 11 10 9 7 5 3 2 5 6 8 8 6 3 4 9 10 10 8 8 6 6
9 8 8 8 8 8 8 8 8 7 7 8 8 8 8 9 9 9 10 11 10 12 12 12 12 13 13 13 13 13 13 14 14 15 15 15 14 15 14 14 15 15 15 15 15 14 14 15 16 15 15 15 14 17 20 22 22 23 15 8 9 9 10 11 8 5 6 2 3 5 9 5 4 6 13 15 9 9 10 8 8 9 7 7 5
9 8 8 8 7 7 7 7 8 8 8 8 8 8 8 9 9 10 10 10 11 11 11 12 12 13 13 14 13 13 13 13 13 14 14 14 14 12 12 12 14 15 15 15 14 14 15 15 16 17 17 15 15 17 20 23 21 21 16 9 7 9 11 7 5 5 6 8 7 12 1 7 4 1 11 17 16 13 9 9 11 12 9 7 6
8 8 8 7 7 7 7 7 7 8 8 8 8 9 8 9 9 9 9 10 10 11 11 12 12 12 13 13 13 13 13 13 14 13 13 14 13 13 13 12 12 13 14 14 14 14 15 14 15 16 21 19 16 16 21 24 22 21 15 8 7 8 6 2 4 6 7 7 6 10 13 6 4 5 9 11 9 6 5 7 8 9 9 8 8
8 7 7 6 5 6 6 6 7 8 7 8 8 8 9 8 9 9 10 10 10 10 10 10 11 11 11 12 12 13 13 13 13 14 14 13 12 12 14 13 12 11 12 13 14 14 16 14 15 16 16 18 19 16 19 25 23 22 23 13 4 4 4 6 6 6 8 8 8 7 9 11 11 8 9 11 10 7 1 7 7 7 9 9 9
7 7 5 5 5 5 6 7 7 8 8 8 8 8 9 9 9 9 9 10 10 10 10 10 10 11 11 12 12 13 14 14 14 13 13 13 12 12 13 14 13 12 12 12 13 13 14 15 15 15 15 16 17 21 20 26 25 24 25 19 7 6 5 5 7 8 8 7 7 7 5 10 11 10 11 13 13 12 8 6 4 6 8 10 10
7 5 4 5 5 5 6 7 7 7 7 7 7 8 8 8 8 9 10 9 9 10 10 10 11 11 11 11 12 12 12 12 13 13 13 13 13 13 12 13 12 12 14 14 14 13 12 13 13 15 14 14 16 20 19 22 25 25 25 27 14 12 10 6 9 7 7 7 7 6 6 8 12 13 15 16 18 18 19 12 13 17 17 15 10
8 6 4 5 7 6 7 6 6 6 7 7 8 8 8 7 9 10 9 9 9 9 10 10 10 10 10 11 11 12 12 11 12 13 14 14 14 14 13 13 14 13 14 14 14 14 13 13 13 13 14 15 14 14 19 18 21 24 25 24 24 18 20 11 6 9 9 8 6 6 6 11 15 15 17 19 18 19 14 13 20 19 16 14 9
7 7 6 6 6 7 6 6 6 6 6 6 7 7 8 8 10 10 9 9 9 9 9 10 10 10 11 11 11 11 11 11 13 13 13 14 14 14 14 13 13 13 13 13 13 13 13 13 12 12 13 14 15 14 17 20 18 22 21 23 22 23 22 12 11 10 9 9 9 8 7 12 15 17 19 20 19 16 13 15 15 15 15 12 8
7 7 6 6 6 6 5 6 5 5 6 6 6 7 8 9 9 8 9 9 9 9 10 10 10 10 10 10 9 9 9 10 11 13 13 12 13 14 13 14 13 12 13 13 12 13 12 12 12 13 12 12 13 13 12 16 21 20 22 22 21 20 18 16 14 12 11 10 12 14 14 14 13 15 17 18 17 18 19 18 18 15 8 6 5
6 4 4 6 6 5 6 5 5 5 5 5 5 6 8 8 8 8 9 9 8 9 9 10 9 9 10 10 11 10 8 9 10 10 11 12 12 12 13 13 13 13 12 12 12 12 13 12 12 12 12 11 10 11 12 11 14 15 16 20 20 20 20 17 15 13 16 17 16 17 18 18 17 13 10 11 11 12 18 19 18 15 10 9 9
7 4 3 3 4 5 5 5 6 5 5 4 5 6 7 8 8 9 9 9 9 10 9 9 10 10 10 10 10 10 9 8 9 8 9 10 11 11 11 11 12 12 12 12 12 12 12 12 11 11 12 12 13 11 11 9 11 10 11 12 13 13 16 16 13 11 11 11 14 14 12 13 12 14 13 12 13 13 14 12 11 10 11 10 10
5 3 3 5 5 6 5 5 5 5 5 5 5 6 6 6 7 9 9 8 8 8 9 10 11 9 9 10 10 8 9 9 9 7 7 8 9 10 10 10 10 10 11 11 11 12 12 10 10 10 11 12 12 11 10 10 10 10 11 11 12 12 13 11 12 10 9 9 9 11 13 10 10 11 11 10 10 11 10 10 10 11 11 10 11
6 4 3 5 5 6 6 5 5 5 6 6 6 6 5 6 7 7 8 9 8 9 8 10 9 9 10 9 10 10 10 10 10 7 6 7 6 8 9 8 7 7 6 7 9 10 10 9 9 9 10 9 10 10 9 10 8 11 10 9 10 9 10 10 13 17 11 10 10 11 11 11 10 10 10 9 8 10 10 10 11 10 9 9 9
7 6 7 6 5 5 5 5 5 5 6 6 6 5 6 7 6 7 8 9 9 8 8 8 9 9 10 9 9 10 10 10 10 9 5 5 4 5 6 7 5 3 5 6 6 6 6 6 8 6 5 6 5 5 10 12 12 12 12 12 10 10 10 9 12 15 11 9 10 9 9 9 9 9 8 8 8 8 9 10 10 11 11 10 10
8 7 7 7 6 5 5 5 5 5 6 6 6 6 6 6 6 6 8 9 9 8 7 8 9 9 9 9 9 9 10 10 11 11 11 5 6 5 9 9 9 5 2 2 8 6 8 10 7 6 4 7 7 8 10 11 12 12 12 12 12 11 11 10 11 7 8 7 6 6 6 8 8 7 7 7 7 8 8 9 9 8 8 9 8
Wind_Direction
85 86 84 87 88 94 99 114 132 153 159 110 120 330 10 2 44 138 109 114 235 241 244 253 247 253 255 253 252 239 244 256 250 240 254 251 251 258 157 274 240 207 81 332 243 243 248 252 244 243 247 242 217 210 224 217 265 256 221 209 223 216 214 202 203 201 198 196 187 186 194 199 198 231 224 261 221 191 203 201 207 190 180 168 176
80 78 73 70 71 77 73 99 120 122 98 71 24 24 350 37 13 52 91 52 16 321 309 284 276 268 272 277 294 312 305 286 254 241 261 342 319 318 326 307 275 230 168 213 223 229 228 236 241 239 237 241 241 233 248 230 158 245 215 220 227 219 218 200 194 201 204 205 195 191 194 191 234 238 209 217 217 218 216 202 193 195 198 178 179
70 66 58 50 46 47 54 53 61 61 58 50 41 37 49 34 35 36 29 8 340 334 298 291 306 297 292 326 316 314 214 222 330 320 349 315 342 309 270 264 270 233 230 215 228 229 227 222 224 233 238 245 236 246 254 252 207 223 242 239 221 217 221 211 197 201 207 210 206 190 194 184 228 247 237 223 202 223 213 179 198 190 192 205 187
64 56 52 53 47 46 43 47 53 52 46 43 36 32 30 27 20 21 20 342 344 2 315 301 301 299 292 284 291 290 301 313 287 277 269 233 254 260 253 261 254 254 238 226 225 230 228 229 217 220 220 231 228 236 228 236 218 199 220 245 229 231 228 211 200 202 225 198 197 203 184 208 205 218 211 227 213 211 225 190 194 200 182 207 216
66 60 57 53 53 52 47 40 41 42 42 39 35 33 27 25 20 15 16 11 354 346 316 310 303 290 296 290 266 267 245 257 265 247 258 229 240 218 235 237 247 245 235 230 234 226 233 227 219 206 220 220 226 239 233 222 221 190 204 246 228 223 218 205 195 205 217 227 217 179 168 215 227 203 182 203 191 222 207 212 195 197 189 201 210
59 62 61 58 59 54 49 47 45 42 36 27 29 27 25 26 14 16 24 23 21 29 353 302 293 292 303 299 279 274 275 266 267 283 266 261 258 245 218 226 244 245 242 242 236 224 223 229 222 207 223 223 219 227 229 219 212 208 198 208 233 220 221 198 191 195 216 211 228 246 323 224 188 154 175 210 200 214 203 213 195 195 199 200 196
64 63 66 66 63 62 57 51 46 46 40 33 26 18 24 20 16 15 16 19 16 7 355 315 311 313 317 306 298 293 292 265 253 237 253 262 249 251 255 250 244 244 247 247 243 232 221 226 235 216 213 212 223 230 230 221 216 214 216 198 211 222 221 199 189 187 199 216 218 229 242 225 235 137 199 111 200 189 236 205 195 189 190 201 201
73 66 65 62 57 53 57 54 53 47 44 42 39 31 21 17 16 15 19 18 23 0 356 355 328 318 311 302 300 295 302 303 293 282 277 267 265 268 260 251 249 251 249 245 245 237 208 212 231 227 219 200 216 229 228 223 216 214 220 243 226 211 204 210 183 184 184 207 211 217 219 238 228 208 240 206 199 186 194 205 192 186 179 200 207
72 68 62 57 54 50 50 53 50 47 44 41 38 36 34 28 24 15 15 7 8 14 2 350 341 330 320 313 312 299 300 299 295 285 273 271 270 264 265 265 255 247 254 258 253 243 226 218 221 237 225 208 209 223 222 220 215 208 215 236 233 214 213 215 196 178 196 215 193 226 230 229 217 231 234 220 224 208 193 190 188 184 196 196 197
68 63 59 55 52 53 50 50 48 43 40 38 36 34 31 29 26 25 18 10 2 356 352 353 348 329 318 328 328 313 310 299 298 289 283 276 269 267 268 259 261 262 248 253 259 248 244 236 226 225 213 222 203 212 221 217 214 216 208 224 244 263 233 217 214 191 218 206 193 199 211 227 226 236 237 239 232 231 208 193 173 174 193 195 186
73 67 60 57 52 49 49 48 45 44 38 35 35 32 31 27 18 23 22 15 7 0 346 341 342 335 332 329 321 311 307 307 299 296 290 286 279 277 270 265 256 265 258 245 254 254 247 237 228 222 214 218 214 215 217 217 212 206 196 208 214 215 233 226 245 227 203 194 197 202 212 213 213 215 223 229 224 210 164 203 187 194 191 190 190
67 59 54 48 44 43 44 44 41 37 35 34 32 29 27 29 23 21 22 16 10 1 351 344 333 333 323 316 309 307 305 301 297 291 288 285 285 284 280 272 260 255 252 256 252 247 240 240 236 224 210 200 202 202 217 210 198 201 203 193 198 204 223 221 211 226 209 210 209 214 220 218 204 222 224 229 233 226 196 193 198 189 189 193 191
66 60 56 48 43 38 37 38 36 33 30 28 28 26 25 20 17 19 21 9 5 1 355 353 345 346 344 336 318 310 303 294 289 292 289 286 287 290 300 296 265 241 254 258 259 249 244 238 233 230 225 217 207 212 207 206 200 204 203 197 195 200 213 218 218 215 204 209 213 214 218 219 234 242 260 263 232 234 238 204 187 180 194 194 191
63 57 50 44 38 35 33 33 34 29 26 24 23 23 24 24 18 14 14 10 5 359 355 353 355 349 342 338 331 321 315 304 297 295 297 295 297 304 312 293 294 283 258 256 254 247 242 235 233 229 226 220 216 214 212 210 209 208 199 200 194 199 207 221 223 205 207 210 223 225 215 219 238 239 231 213 226 204 217 217 203 190 184 174 186
67 59 51 42 37 34 33 31 31 30 24 22 22 20 17 19 13 18 13 13 11 2 354 351 348 347 341 338 336 331 325 317 313 307 300 302 309 306 295 305 302 299 284 262 250 247 240 238 233 228 227 225 215 213 214 213 216 217 207 204 192 187 210 200 214 196 209 209 214 223 219 219 224 233 255 235 228 214 214 208 200 176 197 168 185
61 56 47 41 34 31 31 31 32 27 27 25 26 27 24 22 15 12 11 9 8 3 358 353 351 348 343 342 345 341 332 322 315 315 312 306 300 300 307 300 296 305 310 298 287 275 245 244 240 238 229 226 220 218 220 225 222 213 205 182 194 186 214 200 205 197 200 198 212 226 229 226 217 208 228 267 245 225 219 214 212 207 191 195 195
59 51 44 36 34 31 31 31 30 30 27 25 25 28 26 22 17 15 14 9 9 8 358 1 350 352 355 347 345 336 333 329 322 320 322 315 306 302 298 293 291 293 284 291 284 259 260 239 242 235 232 226 225 223 225 226 221 217 211 194 200 201 199 197 203 203 194 196 219 235 228 220 218 223 214 223 250 233 231 199 227 216 208 207 199
59 50 41 36 32 30 31 32 35 31 25 22 20 22 29 25 18 16 14 6 14 3 6 359 354 356 351 348 341 340 332 330 327 325 326 322 310 304 304 291 287 279 280 275 286 284 265 244 243 238 233 230 227 228 227 224 220 221 222 211 212 200 201 199 197 191 192 180 226 242 232 229 213 219 222 228 239 243 236 207 206 227 223 220 204
63 54 48 44 40 39 36 37 39 35 30 25 22 19 24 23 20 18 14 11 8 342 24 337 15 354 351 348 347 340 337 331 329 328 325 321 319 319 308 304 305 303 291 272 261 261 266 260 245 241 233 232 230 228 223 225 221 227 234 229 220 205 198 199 195 185 181 168 209 226 225 232 204 216 233 236 225 219 216 187 216 220 219 225 248
67 59 53 49 46 41 42 41 39 36 29 23 24 24 21 20 18 13 11 15 2 1 3 355 6 354 337 360 348 349 344 339 336 332 325 321 318 325 325 316 299 280 258 267 273 265 252 269 263 243 242 235 233 223 218 221 227 221 223 232 218 210 202 201 197 186 189 183 198 206 219 224 217 213 212 217 218 211 215 213 203 213 212 205 222
69 65 55 51 49 45 44 44 43 45 33 26 26 25 22 18 9 358 22 7 2 6 350 4 1 354 352 345 2 348 354 345 340 333 329 326 326 324 322 322 315 296 278 276 273 279 270 264 265 257 249 251 238 233 216 204 217 228 221 230 227 209 209 207 205 198 185 191 197 201 220 224 219 217 216 214 224 218 210 211 206 211 228 215 215
77 65 57 55 50 49 50 50 49 43 27 28 25 25 24 25 17 11 10 7 4 355 354 9 353 356 360 345 8 343 0 349 341 337 334 334 328 324 319 316 313 314 306 290 282 278 285 281 287 284 279 258 247 244 232 222 214 219 231 223 231 204 224 216 206 202 190 190 193 195 214 215 217 226 229 219 210 213 209 211 212 213 218 229 231
74 64 58 57 57 57 53 48 42 34 31 26 23 27 25 20 15 14 10 4 12 351 3 6 357 358 359 356 355 358 353 354 346 344 339 335 329 325 322 315 310 308 306 305 297 289 282 291 286 280 274 275 272 253 246 231 225 222 221 223 220 219 201 214 207 207 208 205 201 200 199 197 208 219 236 229 219 207 212 212 212 207 216 235 228
79 73 66 63 64 51 42 41 38 36 34 23 24 25 26 23 16 15 13 8 2 3 355 7 3 359 359 356 356 355 353 348 354 346 342 337 332 328 326 324 318 310 303 298 299 300 294 276 266 269 275 276 271 274 267 262 239 225 229 225 219 220 217 218 210 205 209 209 207 204 199 190 201 221 214 228 221 199 199 211 217 212 208 219 232
90 80 77 77 65 63 66 47 33 30 25 24 21 19 21 19 15 12 11 5 6 1 358 360 2 0 358 357 360 354 354 346 353 348 341 339 339 334 332 328 322 317 312 305 298 298 297 289 279 277 275 272 275 272 254 252 258 263 259 228 218 216 217 222 215 218 213 217 211 210 201 187 183 219 208 221 219 206 201 199 218 228 234 224 216
91 90 82 65 59 56 57 62 47 30 24 23 22 20 18 17 16 13 10 8 7 358 357 5 2 2 356 357 357 352 350 350 350 348 345 344 343 338 334 329 329 326 325 319 311 305 301 291 282 282 280 274 266 268 259 234 245 240 224 231 223 213 224 216 219 239 232 214 208 209 199 197 199 208 212 217 219 210 206 205 207 211 221 209 220
99 90 77 71 60 53 38 31 32 41 49 64 63 26 23 16 15 15 13 10 7 359 0 5 3 360 358 357 355 354 352 350 350 347 348 347 344 341 339 334 332 328 327 327 328 322 310 294 288 289 297 296 288 278 269 269 264 249 258 239 231 221 209 227 211 220 219 223 208 204 199 204 209 207 204 217 214 213 213 217 223 213 222 178 199
96 81 71 66 63 56 49 36 28 26 19 359 16 26 13 20 26 14 12 7 7 2 5 4 1 2 2 357 356 354 352 353 349 350 351 348 344 344 343 339 336 334 334 335 332 331 331 321 313 295 279 268 267 267 267 259 253 254 266 280 249 225 228 231 237 231 217 215 200 196 202 214 218 213 205 195 166 226 259 249 228 262 309 218 205
86 78 70 64 58 52 46 41 38 32 25 26 21 17 15 10 14 14 8 6 8 5 4 5 6 4 3 358 357 358 351 355 353 352 352 351 350 347 343 342 341 337 337 337 336 339 339 336 332 319 293 275 274 270 265 256 262 254 244 247 251 241 230 232 220 223 218 219 197 184 196 206 213 198 154 141 154 141 211 228 226 166 150 94 324
84 77 72 65 59 55 48 43 36 28 28 26 23 21 15 13 14 11 10 3 9 7 6 8 6 5 3 1 0 358 356 355 355 356 354 352 352 353 348 346 345 342 341 340 341 342 343 342 335 331 320 287 270 277 275 276 255 254 260 255 260 290 260 238 232 223 208 203 201 195 190 194 217 173 145 149 153 162 171 255 227 177 178 176 167
88 83 75 68 61 56 50 44 37 32 32 28 22 19 18 16 13 12 10 9 13 9 10 11 7 7 3 1 2 1 358 359 357 359 355 355 356 354 351 349 347 346 343 344 345 344 344 341 339 335 330 326 313 282 280 280 287 273 254 255 243 223 237 251 245 247 226 195 212 199 173 204 212 187 161 159 183 180 172 183 64 109 154 174 185
86 80 73 67 61 54 48 44 39 34 32 28 22 20 19 15 14 14 13 11 15 13 11 10 11 7 4 2 4 1 1 1 1 0 359 358 356 357 354 351 350 348 348 346 347 347 345 347 341 337 332 331 331 354 340 333 314 294 276 261 256 214 223 237 233 221 234 216 209 192 157 183 210 226 202 169 183 172 153 152 140 126 123 82 50
86 77 70 63 58 55 50 43 41 36 32 26 20 20 20 17 15 15 14 14 16 20 14 12 12 8 5 6 4 3 3 4 3 1 360 0 359 358 357 354 352 350 348 350 349 347 348 346 345 342 336 335 331 358 353 353 349 339 315 292 258 247 236 232 221 239 235 261 262 144 176 181 201 222 212 183 163 153 142 140 131 125 110 117 103
86 81 70 65 58 54 50 44 41 39 32 28 25 21 22 22 19 22 17 19 19 20 20 16 12 8 6 4 5 3 1 2 2 1 3 2 0 359 359 355 352 352 351 350 348 349 349 347 348 343 337 337 324 357 352 348 344 335 327 316 269 257 234 219 232 236 246 233 225 207 201 202 197 218 213 207 176 158 159 157 165 169 145 100 93
88 80 74 68 65 60 54 46 39 38 34 29 30 24 25 27 23 23 23 23 24 23 25 19 14 11 7 6 3 2 1 360 0 0 1 1 1 2 359 357 357 357 355 353 351 350 350 350 349 345 343 337 333 347 351 346 340 334 327 317 288 279 246 210 229 227 228 219 199 218 217 219 205 210 204 198 167 171 169 177 183 193 177 160 151
89 82 77 73 67 61 54 52 45 41 39 35 35 28 28 29 26 23 22 21 21 21 22 21 18 15 11 10 7 4 3 2 2 2 359 359 359 0 0 359 356 358 360 358 357 356 354 353 351 349 347 339 336 344 350 345 337 333 326 303 282 262 247 228 233 225 219 217 192 182 310 195 205 221 154 184 162 195 182 180 189 154 115 93 62
93 85 81 75 70 65 57 52 50 40 38 37 32 29 30 30 29 26 22 22 17 19 19 18 18 15 17 12 9 8 6 3 3 1 3 3 359 358 359 357 357 0 0 3 1 3 1 359 357 355 353 345 341 344 349 343 335 332 324 302 285 268 249 235 222 256 232 100 41 166 191 253 217 188 162 155 189 201 193 173 189 143 149 103 93
97 95 85 79 76 73 66 53 46 43 40 37 32 28 33 32 31 27 25 23 19 19 15 14 15 14 12 17 14 12 10 4 4 3 3 2 2 2 359 356 358 358 3 3 360 2 5 5 2 0 1 352 348 345 351 344 337 336 325 293 282 270 245 228 134 92 100 85 49 29 38 184 250 159 144 146 176 192 179 187 180 153 128 118 112
99 93 89 80 67 56 54 52 48 44 41 34 33 33 27 32 31 28 27 24 21 19 15 13 13 13 14 14 14 13 11 7 8 8 4 3 4 2 4 2 359 359 1 2 1 3 5 7 6 3 3 3 356 350 355 348 344 347 343 293 295 271 232 119 89 86 69 79 58 45 28 33 154 101 94 87 54 13 185 170 152 150 138 138 137
108 103 90 82 79 77 62 55 48 47 41 35 27 32 32 32 29 23 25 23 21 18 17 14 13 13 12 15 14 11 9 10 9 5 11 11 3 3 3 5 5 4 359 0 2 1 4 6 10 10 11 12 7 360 0 356 354 359 360 342 323 343 30 43 32 48 71 52 44 33 28 27 58 66 76 71 64 30 243 149 146 146 139 129 137
114 108 120 101 84 67 55 47 52 45 44 35 33 34 28 25 27 22 24 21 17 12 13 17 14 13 13 15 15 11 7 9 9 7 9 13 12 6 3 3 5 8 13 7 4 1 4 6 9 13 13 15 18 16 12 7 4 8 13 8 350 20 42 59 58 53 40 43 32 27 28 14 47 55 67 66 63 54 62 109 100 117 116 124 123
109 141 127 102 85 77 69 62 53 50 54 53 40 36 33 27 27 24 22 15 13 11 10 17 16 11 14 15 14 17 10 8 9 8 7 7 13 14 7 3 2 5 11 14 11 7 3 5 6 9 12 14 13 16 16 15 13 16 21 24 18 11 9 82 71 63 55 47 34 19 18 20 45 57 62 69 71 74 78 80 87 88 83 87 100
142 142 108 90 99 78 65 59 51 44 48 43 51 40 31 26 29 26 22 14 14 12 10 15 14 14 9 20 16 16 14 10 12 8 8 11 11 13 13 6 4 4 10 13 13 12 10 6 6 7 10 13 14 14 14 14 14 18 23 29 30 27 12 8 39 76 63 57 46 43 40 44 53 52 66 68 70 73 75 90 93 90 87 83 89
98 97 102 93 87 86 81 65 54 44 49 47 43 50 30 29 30 25 18 17 16 17 16 12 11 13 10 18 17 16 22 14 15 14 12 11 14 12 13 14 9 6 6 11 13 13 11 12 7 6 10 14 14 15 12 12 13 15 21 25 28 35 34 27 30 52 55 55 45 40 51 62 68 67 63 65 64 65 70 69 71 78 84 84 95
115 101 95 88 86 87 79 71 66 61 42 37 33 39 39 30 37 18 25 30 14 11 21 17 14 14 11 15 24 14 21 16 16 17 17 15 15 16 12 12 16 12 8 8 13 13 16 13 13 12 10 7 7 6 8 10 12 14 17 19 19 23 37 35 41 42 49 53 53 46 41 47 49 60 67 67 62 59 59 57 57 52 63 121 125
113 104 92 100 104 89 76 68 60 51 55 38 36 29 32 32 29 21 28 26 21 13 28 23 15 17 19 9 24 13 16 25 18 12 13 16 16 16 18 12 13 14 12 12 12 14 13 21 16 15 12 7 359 4 4 6 12 16 16 13 16 20 20 26 37 41 44 46 45 47 44 42 41 32 50 62 66 62 61 57 53 55 51 48 55
98 99 131 110 101 89 81 73 65 50 45 44 29 37 32 22 27 17 24 24 23 3 18 31 17 17 15 12 19 19 5 26 23 24 18 19 17 17 24 19 16 14 15 14 18 17 12 15 23 17 14 13 16 12 7 1 7 12 18 14 16 15 17 20 22 20 23 37 37 40 43 40 51 45 45 59 65 58 56 51 51 55 54 47 47
103 104 92 100 89 85 70 65 62 51 47 36 28 31 41 30 28 27 23 24 26 16 7 25 30 20 10 13 19 14 9 13 18 52 30 29 22 22 25 33 16 18 15 16 17 18 14 14 19 14 12 14 15 14 9 2 5 11 10 17 18 17 16 13 15 9 12 19 31 35 37 33 36 40 35 35 46 56 58 58 54 53 51 49 50
117 103 81 75 75 77 76 69 56 49 42 42 40 30 22 31 29 33 25 24 23 25 13 23 33 23 6 13 17 14 7 10 14 58 76 49 41 28 28 38 42 19 14 17 19 21 13 14 25 17 10 10 9 5 352 335 351 7 14 12 18 16 14 15 8 8 7 15 23 33 31 28 30 35 34 29 37 54 56 56 59 58 58 56 51
115 115 108 100 87 82 68 62 57 46 44 43 36 39 26 25 25 19 24 28 25 27 18 18 29 31 12 9 18 13 15 12 13 17 92 121 20 12 13 33 59 59 8 4 21 34 2 5 30 47 34 27 3 334 326 346 359 4 9 14 14 15 16 14 11 13 21 24 19 22 25 27 26 29 32 29 29 43 53 53 49 52 53 52 51
120 116 107 96 94 87 77 60 53 39 46 42 41 31 33 36 28 15 26 28 28 23 20 12 24 26 22 1 16 16 10 10 7 9 9 42 138 105 49 58 70 52 22 74 73 59 27 14 18 51 109 101 53 11 6 0 359 0 4 6 8 8 11 8 9 18 28 32 19 24 19 23 26 29 34 30 32 41 48 55 55 55 54 56 57